Wind_Speed
9 11 12 11 10 11 11 9 4 5 6 9 12 14 13 12 11 12 13 15 14 14 14 12 10 10 11 11 11 12 12 13 13 14 14 15 15 16 16 16 16 17 17 17 17 18 18 19 21
14 14 12 11 9 10 10 6 4 4 4 7 11 12 12 12 12 13 13 13 12 12 12 11 9 8 8 9 9 11 13 13 14 15 16 17 17 18 18 18 18 18 19 19 20 20 21 22 23
17 15 13 11 10 9 6 3 2 1 3 6 8 11 13 13 12 13 12 11 10 10 11 10 9 9 8 8 8 10 11 12 13 15 16 16 16 17 18 19 19 20 21 21 22 23 24 25 27
17 15 12 10 10 8 5 2 3 5 6 8 10 12 14 14 14 12 11 10 10 10 10 10 10 10 9 8 8 8 9 10 11 12 13 14 15 15 16 17 18 19 21 23 25 27 28 29 29
17 14 12 11 10 7 4 1 5 8 10 12 12 14 15 15 14 12 11 11 11 11 10 11 11 11 10 8 7 7 8 9 9 10 11 12 13 14 15 16 18 19 20 21 23 26 28 30 31
16 14 12 10 9 6 3 1 5 8 10 12 14 15 16 15 16 14 13 13 13 13 12 12 12 11 10 9 8 9 10 11 10 10 11 11 11 12 14 15 16 17 19 20 22 23 25 27 29
17 14 12 10 10 7 4 2 4 7 9 12 14 16 16 16 16 15 15 15 13 12 11 12 11 10 9 9 9 11 12 13 13 13 14 14 15 15 16 16 17 18 19 19 20 21 23 26 27
16 14 14 14 13 11 7 3 3 5 8 11 14 15 16 18 17 15 15 15 14 13 11 11 10 9 9 10 12 13 15 17 18 18 18 18 18 18 18 19 19 20 20 21 21 22 23 25 27
14 15 14 15 14 11 9 4 4 6 7 10 13 15 18 19 18 16 16 15 16 16 14 12 9 9 10 11 13 15 17 19 20 21 21 21 19 19 20 20 21 21 22 22 23 24 25 27 28
14 14 12 12 13 13 11 8 7 8 9 11 14 16 17 19 18 16 16 16 17 16 15 13 10 9 10 12 13 15 16 18 19 20 22 22 21 21 21 21 21 22 23 23 24 25 26 27 29
16 16 13 13 14 15 16 14 13 13 13 14 15 18 19 20 19 16 16 16 17 16 15 14 13 12 11 13 14 15 16 17 18 19 21 22 23 22 23 23 23 24 25 25 26 26 28 29 31
20 19 17 16 16 19 21 20 17 16 16 18 19 21 21 21 20 18 16 16 17 17 16 15 14 13 13 14 15 16 17 18 19 20 21 22 24 25 26 27 28 28 28 28 28 29 30 32 34
23 22 19 18 19 21 22 23 19 18 20 21 22 23 23 22 22 20 18 17 17 17 17 16 16 15 15 16 17 17 18 20 21 22 23 24 25 26 28 29 29 30 29 29 30 31 33 34 36
27 23 21 20 22 23 25 26 24 22 24 24 25 25 24 22 21 21 20 18 18 18 17 18 19 20 20 19 19 19 21 22 23 24 24 25 26 27 28 28 29 30 31 32 33 34 35 36 37
29 26 24 24 25 27 27 27 27 27 28 28 28 27 24 20 20 22 22 21 20 19 19 20 22 24 24 22 21 20 21 22 22 22 23 25 26 28 28 29 31 32 33 35 36 37 38 40 41
30 28 26 27 27 28 28 27 26 28 30 30 30 27 22 18 18 21 24 23 22 20 21 22 24 25 25 24 22 21 21 21 21 22 24 25 28 29 31 32 34 35 37 38 39 41 42 44 46
32 31 28 29 30 30 31 30 28 29 30 29 28 24 18 15 17 21 24 24 21 20 21 23 25 26 25 24 23 23 23 23 24 25 27 28 30 32 34 36 38 39 41 42 43 44 46 47 49
35 34 31 29 31 33 35 34 31 31 30 29 27 21 17 15 17 21 23 23 20 20 22 24 26 27 27 27 27 27 28 28 29 30 31 33 34 36 38 40 41 43 45 46 48 49 51 52 53
37 37 35 31 32 37 38 37 34 34 32 31 27 21 18 17 18 21 23 22 21 22 24 26 29 31 31 32 32 33 34 34 34 34 34 36 37 39 41 43 45 46 48 50 52 53 55 56 57
40 40 38 33 34 40 41 41 38 35 34 31 28 26 21 18 20 23 24 24 24 25 27 30 33 34 35 36 36 37 38 38 37 37 37 39 41 43 45 47 49 51 52 54 55 57 58 59 60
42 41 38 35 36 42 43 44 41 38 35 31 27 24 20 19 22 25 27 27 27 28 30 33 35 37 37 38 39 39 40 41 41 41 42 44 46 48 50 52 54 55 57 58 59 60 60 61 61
42 39 38 37 39 42 45 48 44 42 38 33 27 23 21 23 25 28 29 30 31 32 33 36 38 39 39 39 41 42 43 44 44 44 45 47 50 52 54 56 57 59 59 60 61 61 61 60 55
38 36 38 39 41 44 46 49 47 45 42 34 27 24 25 27 29 30 31 32 33 34 36 38 40 40 40 41 42 44 45 46 47 47 48 51 54 57 59 59 59 60 61 62 61 59 56 51 45
37 37 40 41 43 46 45 47 49 44 39 34 30 28 29 31 32 32 32 34 35 37 39 41 42 42 42 42 44 46 47 48 48 49 51 54 58 61 62 61 60 61 61 61 58 54 48 43 41
36 36 38 41 43 45 41 45 45 41 37 34 33 34 34 34 34 34 34 36 38 39 41 43 45 45 44 44 47 48 49 50 50 51 54 58 61 63 62 60 60 61 60 56 51 47 43 42 43
33 34 37 40 42 43 41 44 40 38 36 36 38 38 38 39 38 38 38 38 39 41 43 45 46 47 47 48 50 51 51 50 50 52 57 60 62 61 60 60 60 59 54 49 46 44 43 44 46
29 32 34 39 42 44 43 42 39 36 35 35 35 36 38 39 38 36 35 35 37 40 44 46 47 49 50 51 52 53 52 50 51 55 59 62 61 59 58 58 56 52 48 45 44 44 45 47 49
28 29 35 40 42 45 44 42 38 33 31 31 32 33 34 35 34 33 33 34 38 41 43 46 50 52 53 53 53 53 51 50 53 56 60 59 57 56 56 54 50 47 45 44 44 46 48 51 54
26 29 33 37 41 45 47 43 35 32 30 29 29 29 31 32 35 37 37 38 40 43 45 48 52 54 54 54 52 50 48 49 52 56 57 55 54 55 53 50 47 45 45 45 47 49 52 55 58
29 31 33 36 38 42 46 42 36 34 32 31 31 31 31 32 34 36 38 39 41 44 47 50 53 54 53 51 48 46 47 49 53 54 52 52 53 52 49 47 46 45 46 48 51 54 57 59 62
Wind_Direction
182 179 181 185 190 196 203 212 229 277 307 356 9 7 5 1 354 344 335 330 326 326 325 318 309 297 289 281 276 274 273 276 279 283 285 286 284 282 282 284 284 281 277 273 269 269 269 270 268
171 168 165 163 166 177 191 211 238 276 335 17 19 14 11 6 355 345 340 337 334 335 333 328 323 311 301 292 283 278 278 282 286 288 288 287 285 282 280 280 280 278 276 274 273 274 275 275 275
170 168 159 155 166 175 181 209 250 297 35 28 17 11 6 358 346 340 344 347 345 347 349 345 340 333 321 306 296 288 289 293 296 296 295 293 289 286 285 285 283 281 280 278 277 276 276 275 276
174 169 165 161 168 171 172 160 69 58 52 42 27 14 4 354 342 336 338 343 345 351 354 354 352 353 344 324 308 299 298 299 302 303 301 299 296 294 293 292 291 290 288 285 282 279 276 274 274
181 177 171 167 174 177 182 108 55 52 48 38 25 14 2 356 347 340 338 338 342 346 346 344 345 348 346 332 316 311 306 303 302 305 306 304 301 299 297 295 293 293 291 290 287 285 282 279 277
188 189 184 179 193 201 210 19 42 37 33 25 16 6 355 354 352 350 346 341 341 342 342 345 346 346 346 345 330 318 310 306 305 304 304 303 302 302 300 298 297 295 293 291 290 289 287 285 283
197 201 202 205 221 225 230 330 25 23 21 16 7 355 351 352 357 351 347 348 347 342 341 346 346 343 339 333 325 313 306 304 302 301 302 303 301 300 297 295 293 291 289 287 286 285 284 284 284
207 212 215 224 235 241 248 272 348 3 10 2 353 348 353 2 3 357 356 358 0 359 356 356 354 345 332 322 317 310 306 304 303 303 303 304 304 302 298 294 290 287 284 281 278 277 278 279 281
218 221 229 237 248 260 273 275 308 319 343 344 337 341 352 2 1 356 358 4 10 12 13 10 6 355 337 325 317 311 307 305 304 303 304 304 303 301 299 296 293 291 288 284 279 275 273 274 275
229 237 245 252 261 274 287 292 296 300 313 321 320 330 344 355 356 355 2 9 10 14 17 16 9 354 342 334 326 318 310 305 303 303 302 301 299 298 297 297 298 298 295 291 286 282 279 276 274
240 246 255 260 268 280 293 300 301 296 300 305 306 316 327 342 349 352 357 5 6 11 13 10 6 355 346 332 323 315 307 301 300 301 300 299 297 296 295 295 295 296 296 296 294 291 288 284 281
243 249 252 259 270 281 296 304 299 294 292 290 296 306 317 332 338 339 343 352 358 4 4 2 355 348 338 328 321 309 300 297 295 295 296 297 297 296 295 296 296 297 299 299 299 298 295 291 287
243 251 252 256 266 276 289 296 291 279 278 282 289 298 310 324 329 329 332 340 346 354 357 354 350 344 336 328 318 308 301 297 294 296 296 296 299 300 301 301 302 303 304 304 303 301 300 298 294
242 250 252 256 263 272 282 287 278 268 269 273 281 290 302 316 324 325 328 335 339 344 348 347 345 343 339 332 322 313 306 302 300 300 298 298 300 302 303 304 305 306 306 306 305 302 300 298 296
240 247 250 253 259 268 279 281 272 263 263 266 272 280 290 304 317 323 327 330 331 334 338 337 338 340 340 336 329 322 317 313 310 308 306 305 305 306 306 307 307 307 307 305 303 302 301 299 297
243 247 248 251 258 267 271 271 262 257 258 261 265 270 276 293 311 321 325 324 323 326 331 332 333 338 341 341 337 333 329 327 323 319 316 313 310 309 309 308 307 307 306 304 301 300 299 297 296
245 247 248 248 257 264 265 263 256 254 254 256 259 263 269 288 309 320 322 318 315 320 326 329 330 333 338 340 339 337 334 330 327 324 320 316 313 311 310 308 307 306 304 303 301 299 298 296 294
247 248 247 246 252 256 258 258 254 253 254 255 258 263 272 288 307 316 317 311 309 314 321 326 327 327 329 333 334 334 332 330 327 324 322 320 318 316 313 311 309 308 306 304 302 301 299 297 294
244 247 247 245 247 250 253 256 254 253 254 257 261 262 270 284 298 307 310 308 306 310 317 321 322 322 322 325 327 330 331 330 328 326 326 325 323 320 317 314 312 309 307 305 303 301 299 297 295
245 247 249 248 248 250 252 254 255 253 255 260 259 257 258 271 287 297 303 306 306 308 313 317 317 316 316 319 322 325 329 329 326 325 325 325 324 322 320 316 313 310 307 305 302 300 298 296 294
247 249 250 248 245 250 254 254 253 252 253 256 257 256 259 269 280 289 296 302 305 307 308 311 312 311 312 314 317 319 324 326 324 323 323 324 323 322 319 316 313 310 307 305 302 300 298 296 295
248 249 249 246 243 244 250 252 251 252 252 253 253 255 260 268 276 282 289 295 299 301 303 305 305 307 308 309 311 313 316 319 320 320 321 321 320 319 317 314 312 310 308 305 303 302 300 298 296
249 246 247 245 245 246 248 254 256 254 253 255 254 256 260 266 273 278 284 289 292 295 297 298 299 301 302 303 305 308 310 314 316 317 318 318 318 317 315 313 312 310 308 306 304 302 301 299 296
247 243 245 247 248 250 252 255 257 256 259 259 259 261 263 267 271 276 280 284 287 290 291 291 292 294 295 296 299 303 306 310 312 313 314 315 316 316 314 313 312 310 308 306 304 302 300 298 295
249 246 245 246 248 253 254 256 258 259 261 263 264 265 266 267 269 272 277 282 285 286 285 285 286 287 289 291 294 298 303 306 307 309 311 313 314 314 313 312 310 309 307 305 303 300 298 296 295
251 248 245 246 249 254 256 257 259 261 263 266 267 267 266 268 270 273 277 280 281 281 281 282 283 285 286 288 291 293 298 301 304 307 310 311 312 312 311 310 310 309 307 305 302 299 297 296 296
243 245 247 248 252 255 258 261 263 264 267 270 271 270 269 271 273 275 276 277 278 280 282 282 283 283 283 285 288 291 294 298 303 307 308 309 309 310 310 311 311 310 307 303 300 298 297 297 296
239 239 241 245 252 258 262 263 265 268 271 273 273 273 271 270 270 273 276 279 282 284 286 287 287 287 285 286 289 291 294 299 302 305 306 307 308 309 311 311 310 308 305 302 300 299 299 299 298
235 238 242 247 251 256 261 265 271 274 275 275 276 276 275 272 271 274 280 283 284 286 288 290 290 290 289 288 289 292 297 302 305 305 306 307 309 311 311 309 307 306 304 303 302 302 301 300 299
238 241 243 247 250 254 260 266 270 272 274 274 274 276 278 278 278 281 285 286 287 288 291 292 292 289 287 289 294 300 306 307 306 307 307 309 310 311 309 307 306 306 306 306 304 303 302 301 300
Height
5882 5883 5885 5888 5890 5891 5891 5892 5894 5894 5893 5892 5890 5889 5888 5888 5888 5889 5887 5884 5883 5882 5881 5880 5880 5879 5879 5879 5880 5881 5882 5883 5883 5884 5885 5885 5885 5885 5885 5885 5885 5886 5886 5886 5886 5886 5887 5887 5887
5881 5882 5885 5888 5889 5890 5891 5892 5894 5894 5892 5891 5890 5889 5887 5886 5886 5885 5884 5882 5881 5880 5880 5879 5878 5878 5877 5877 5878 5879 5880 5880 5881 5882 5882 5882 5882 5882 5882 5882 5882 5882 5883 5882 5882 5883 5883 5883 5883
5880 5882 5885 5887 5889 5890 5892 5892 5893 5892 5891 5890 5889 5887 5886 5885 5885 5884 5883 5882 5881 5880 5879 5879 5878 5878 5877 5876 5876 5877 5878 5878 5879 5879 5879 5879 5878 5878 5878 5878 5879 5879 5879 5879 5879 5879 5879 5879 5879
5881 5883 5886 5888 5889 5891 5891 5892 5891 5891 5889 5888 5887 5886 5885 5885 5884 5883 5882 5882 5881 5880 5879 5879 5878 5877 5876 5876 5876 5876 5876 5876 5876 5876 5876 5875 5875 5874 5874 5874 5875 5875 5875 5875 5875 5874 5874 5874 5874
5881 5883 5886 5888 5890 5891 5891 5890 5890 5889 5888 5887 5886 5886 5886 5885 5884 5883 5882 5882 5881 5880 5879 5879 5878 5876 5876 5875 5875 5875 5875 5875 5875 5874 5874 5873 5872 5872 5871 5871 5871 5871 5871 5870 5870 5869 5869 5869 5869
5881 5883 5886 5888 5889 5890 5889 5889 5888 5888 5886 5885 5885 5885 5885 5885 5884 5882 5881 5881 5880 5879 5878 5877 5876 5875 5874 5874 5874 5874 5874 5874 5873 5872 5872 5871 5870 5869 5868 5868 5867 5867 5867 5866 5865 5865 5864 5863 5863
5882 5883 5885 5887 5887 5888 5888 5887 5887 5887 5886 5885 5885 5885 5885 5885 5884 5882 5880 5879 5878 5877 5876 5875 5873 5873 5873 5872 5872 5872 5872 5872 5871 5870 5869 5868 5867 5866 5865 5864 5863 5863 5862 5861 5861 5860 5858 5858 5857
5881 5883 5884 5885 5885 5885 5885 5885 5885 5885 5885 5885 5884 5885 5885 5885 5883 5881 5879 5878 5876 5874 5873 5872 5871 5871 5871 5871 5870 5870 5869 5869 5868 5866 5865 5864 5863 5862 5860 5860 5859 5858 5857 5856 5855 5853 5852 5851 5851
5880 5883 5882 5883 5883 5884 5883 5883 5883 5883 5884 5884 5884 5884 5885 5884 5882 5880 5878 5876 5875 5873 5871 5870 5870 5870 5869 5868 5868 5867 5866 5865 5863 5862 5861 5859 5858 5857 5856 5855 5853 5852 5851 5850 5848 5847 5846 5845 5844
5879 5880 5881 5881 5881 5881 5881 5882 5881 5881 5882 5883 5883 5883 5883 5883 5881 5879 5877 5875 5873 5872 5870 5869 5868 5868 5867 5865 5864 5863 5861 5860 5859 5857 5856 5855 5854 5852 5851 5850 5848 5847 5845 5844 5842 5841 5839 5838 5837
5877 5878 5879 5878 5879 5879 5879 5879 5879 5879 5880 5882 5882 5881 5882 5882 5881 5878 5876 5874 5873 5872 5870 5869 5867 5866 5864 5862 5861 5859 5857 5856 5854 5853 5852 5851 5850 5848 5846 5845 5843 5841 5839 5837 5836 5834 5832 5831 5829
5874 5875 5876 5876 5877 5876 5876 5876 5876 5877 5879 5880 5880 5880 5880 5880 5879 5877 5874 5873 5872 5871 5869 5867 5865 5864 5862 5860 5857 5855 5853 5852 5850 5849 5848 5847 5845 5844 5842 5840 5838 5835 5833 5831 5829 5827 5825 5824 5822
5870 5871 5874 5875 5875 5875 5874 5873 5874 5874 5875 5876 5877 5877 5878 5878 5877 5875 5872 5871 5870 5868 5867 5865 5863 5861 5859 5857 5854 5852 5850 5848 5846 5845 5843 5842 5840 5838 5836 5834 5831 5829 5827 5824 5822 5820 5818 5816 5814
5867 5869 5871 5873 5873 5873 5872 5872 5871 5871 5873 5874 5875 5875 5876 5876 5875 5872 5870 5868 5867 5866 5864 5862 5860 5858 5856 5854 5851 5848 5846 5844 5842 5840 5838 5837 5835 5833 5831 5829 5826 5823 5821 5818 5815 5813 5811 5808 5806
5864 5866 5869 5869 5870 5870 5870 5870 5868 5868 5869 5870 5872 5873 5874 5874 5872 5869 5866 5865 5864 5862 5860 5858 5856 5854 5852 5850 5848 5845 5843 5840 5838 5836 5834 5832 5830 5828 5826 5824 5821 5818 5815 5812 5809 5806 5803 5800 5797
5861 5863 5864 5865 5866 5866 5868 5867 5865 5863 5864 5865 5867 5869 5871 5871 5869 5866 5863 5861 5860 5858 5856 5854 5852 5851 5849 5847 5845 5842 5840 5838 5835 5833 5831 5829 5826 5823 5820 5817 5814 5811 5808 5804 5801 5798 5795 5792 5788
5857 5858 5860 5862 5861 5861 5860 5861 5860 5858 5858 5859 5861 5864 5866 5866 5865 5862 5860 5858 5856 5854 5852 5850 5849 5847 5846 5844 5842 5839 5837 5834 5832 5829 5826 5823 5820 5817 5814 5810 5807 5803 5799 5795 5792 5788 5784 5781 5777
5850 5851 5853 5857 5857 5855 5853 5854 5854 5853 5853 5854 5856 5858 5860 5860 5860 5858 5856 5854 5851 5850 5848 5846 5845 5843 5842 5840 5838 5835 5832 5829 5826 5823 5820 5816 5813 5809 5805 5801 5796 5792 5788 5783 5779 5775 5771 5767 5762
5842 5843 5846 5851 5850 5847 5846 5846 5848 5847 5848 5850 5851 5853 5854 5854 5854 5853 5851 5849 5847 5845 5843 5841 5840 5838 5836 5834 5832 5828 5825 5822 5819 5816 5812 5808 5804 5800 5795 5791 5786 5781 5776 5771 5766 5761 5756 5751 5746
5834 5836 5839 5844 5843 5839 5838 5839 5840 5842 5843 5845 5846 5846 5846 5847 5848 5847 5845 5843 5841 5839 5837 5835 5833 5831 5829 5827 5824 5820 5817 5814 5811 5807 5803 5799 5795 5790 5785 5780 5775 5769 5764 5759 5753 5747 5742 5736 5731
5827 5830 5833 5835 5834 5831 5831 5831 5833 5835 5837 5839 5840 5840 5840 5841 5841 5841 5840 5838 5836 5834 5832 5829 5827 5824 5821 5819 5816 5812 5809 5806 5803 5799 5794 5789 5784 5779 5773 5768 5763 5757 5751 5745 5739 5733 5726 5720 5715
5819 5823 5824 5825 5825 5824 5823 5822 5827 5829 5831 5833 5834 5834 5834 5835 5835 5835 5834 5832 5830 5828 5826 5823 5820 5817 5814 5811 5808 5805 5802 5799 5795 5790 5785 5779 5774 5768 5762 5756 5750 5744 5737 5730 5723 5716 5710 5704 5698
5812 5815 5814 5815 5816 5816 5816 5815 5819 5821 5824 5827 5827 5827 5828 5829 5829 5828 5827 5825 5823 5821 5819 5816 5813 5810 5807 5804 5801 5798 5795 5791 5786 5781 5775 5769 5763 5757 5750 5743 5736 5729 5722 5714 5707 5700 5694 5688 5683
5803 5805 5805 5806 5807 5807 5811 5809 5809 5814 5817 5819 5820 5821 5821 5822 5821 5820 5819 5817 5815 5813 5811 5808 5805 5802 5799 5797 5793 5790 5786 5782 5777 5771 5765 5759 5752 5744 5736 5728 5721 5713 5706 5698 5691 5685 5679 5675 5671
5796 5798 5798 5798 5798 5799 5804 5801 5803 5807 5810 5811 5812 5813 5814 5814 5814 5813 5811 5809 5808 5806 5803 5800 5797 5794 5791 5788 5784 5780 5776 5772 5767 5761 5754 5747 5739 5731 5723 5714 5706 5699 5691 5684 5677 5672 5667 5663 5660
5789 5790 5792 5792 5792 5793 5795 5794 5799 5801 5802 5803 5803 5804 5805 5805 5805 5804 5803 5802 5800 5798 5794 5791 5788 5784 5781 5777 5774 5770 5766 5761 5756 5749 5742 5735 5727 5718 5710 5701 5693 5684 5676 5670 5665 5660 5656 5652 5649
5782 5783 5785 5786 5785 5785 5787 5789 5792 5795 5796 5796 5796 5796 5796 5796 5796 5795 5794 5793 5791 5788 5785 5781 5778 5774 5770 5767 5763 5759 5755 5750 5744 5737 5730 5722 5714 5705 5697 5688 5680 5671 5665 5659 5654 5650 5646 5641 5637
5776 5778 5779 5779 5779 5777 5778 5781 5786 5790 5790 5789 5788 5788 5787 5787 5787 5786 5785 5783 5781 5779 5776 5772 5768 5764 5759 5755 5751 5747 5742 5737 5731 5725 5718 5709 5701 5692 5684 5676 5668 5661 5655 5650 5644 5639 5634 5629 5623
5770 5771 5771 5772 5773 5772 5770 5776 5781 5782 5782 5782 5781 5780 5779 5779 5778 5777 5776 5774 5772 5769 5766 5763 5758 5754 5749 5744 5740 5735 5731 5726 5719 5713 5705 5696 5688 5680 5672 5664 5657 5650 5644 5639 5633 5627 5621 5615 5608
5765 5765 5766 5766 5766 5766 5764 5771 5773 5774 5775 5775 5774 5773 5772 5772 5770 5769 5767 5764 5762 5759 5756 5752 5747 5742 5738 5733 5729 5724 5719 5713 5706 5699 5691 5683 5676 5667 5660 5652 5646 5639 5633 5627 5620 5614 5606 5599 5591